Volver al catálogo

STARLINK-35975

ActivoComunicacionesVLEO
NORAD 66525·PAYLOAD·🇺🇸 United States

Lanzado Nov 19, 2025 desde Cape Canaveral Space Force Station

Loading…

Próximos Pases (próximas 24 horas)

TLE

ActualizadoSource: CelesTrak SupGP

Época: Sep 14, 2026, 23:10 UTC

1 66525C 25265K   26257.96576389  .00031530  00000+0  11420-2 0  2577
2 66525  43.0000 288.9662 0001426 268.2573   5.2003 15.27564158    15

Sigue STARLINK-35975 en tiempo real con AllMySat

Download on the App Store